KE0BZR Weather Reports


time (UTC)temp
F
wind
direction
speed
knots
gust
knots
rain 1hr
in
rain 24hr
in
rain mn
in
humidity
%
barometer
mb
20240304024514 34 34 3.5 12.2 0.00 0.00 0.00 59 1003.1
20240304023006 35 5 7.0 13.9 0.00 0.00 0.00 56 1002.3
20240304021503 41 20 2.6 7.8 0.00 0.00 0.00 42 1001.5
20240304020103 42 355 0.0 2.6 0.00 0.00 0.00 42 1000.9
20240304014559 42 48 0.0 0.0 0.00 0.00 0.00 41 1000.4
20240304013055 43 83 0.0 0.0 0.00 0.00 0.00 40 1000.0
20240304011603 43 71 1.7 4.3 0.00 0.00 0.00 39 999.5
20240304010052 44 52 1.7 5.2 0.00 0.00 0.00 38 999.2
20240304004552 44 34 3.5 8.7 0.00 0.00 0.00 37 998.7
20240304003052 45 40 1.7 9.6 0.00 0.00 0.00 36 998.7
20240304001652 46 72 2.6 7.8 0.00 0.00 0.00 35 998.3
20240304000049 47 42 3.5 9.6 0.00 0.00 0.00 34 998.2
20240303234549 48 21 2.6 8.7 0.00 0.00 0.00 32 997.9
20240303233049 48 11 5.2 8.7 0.00 0.00 0.00 29 997.8
20240303231548 48 57 2.6 8.7 0.00 0.00 0.00 30 997.6
20240303230048 49 27 3.5 9.6 0.00 0.00 0.00 29 997.6
20240303224547 50 28 0.0 7.8 0.00 0.00 0.00 22 997.6
20240303223049 50 325 1.7 7.0 0.00 0.00 0.00 22 997.3
20240303221545 50 355 1.7 8.7 0.00 0.00 0.00 23 997.4
20240303220046 49 39 3.5 18.2 0.00 0.00 0.00 23 997.4
20240303214600 50 174 1.7 16.5 0.00 0.00 0.00 22 996.8
20240303213044 50 246 6.1 11.3 0.00 0.00 0.00 23 997.0
20240303211546 50 14 6.1 16.5 0.00 0.00 0.00 23 996.7
20240303210045 51 323 3.5 17.4 0.00 0.00 0.00 23 996.6
20240303204541 50 161 9.6 15.6 0.00 0.00 0.00 23 996.8
20240303203042 49 112 0.0 7.0 0.00 0.00 0.00 25 996.9
20240303201539 49 10 4.3 7.8 0.00 0.00 0.00 25 997.0
20240303200038 48 86 0.9 5.2 0.00 0.00 0.00 26 997.1
20240303194538 47 44 0.9 5.2 0.00 0.00 0.00 28 997.6
20240303193037 46 180 0.0 7.0 0.00 0.00 0.00 27 997.7
20240303191538 46 134 0.0 2.6 0.00 0.00 0.00 28 997.7
20240303190036 46 192 0.0 5.2 0.00 0.00 0.00 29 998.0
20240303184540 46 107 0.0 7.0 0.00 0.00 0.00 28 998.1
20240303183038 46 181 3.5 9.6 0.00 0.00 0.00 27 998.3
20240303181537 45 150 1.7 10.4 0.00 0.00 0.00 26 998.3
20240303180048 44 113 5.2 8.7 0.00 0.00 0.00 25 998.2
20240303174532 44 224 1.7 7.0 0.00 0.00 0.00 25 998.4
20240303173029 44 161 0.0 5.2 0.00 0.00 0.00 24 998.2
20240303171529 44 100 0.0 3.5 0.00 0.00 0.00 24 998.3
20240303170035 43 206 0.0 7.0 0.00 0.00 0.00 25 998.5
20240303164528 43 144 0.0 6.1 0.00 0.00 0.00 27 998.6
20240303163021 42 200 2.6 10.4 0.00 0.00 0.00 26 998.9
20240303161521 41 247 3.5 11.3 0.00 0.00 0.00 25 998.7
20240303160013 41 283 5.2 12.2 0.00 0.00 0.00 26 998.7
20240303154509 40 281 7.0 20.0 0.00 0.00 0.00 27 998.6
20240303153006 39 285 5.2 15.6 0.00 0.00 0.00 29 999.1
20240303151601 38 254 8.7 18.2 0.00 0.00 0.00 31 999.3
20240303150058 37 245 7.0 15.6 0.00 0.00 0.00 32 999.0
20240303144555 36 281 5.2 13.9 0.00 0.00 0.00 34 998.9
20240303143051 35 241 3.5 12.2 0.00 0.00 0.00 35 999.1
20240303141602 35 79 0.0 0.0 0.00 0.00 0.00 33 998.5
20240303140048 35 106 0.0 4.3 0.00 0.00 0.00 33 999.0
20240303134553 34 279 0.9 7.8 0.00 0.00 0.00 33 999.1
20240303133044 34 252 7.0 13.9 0.00 0.00 0.00 33 998.8
20240303131541 35 328 7.0 13.0 0.00 0.00 0.00 31 997.7
20240303130051 36 245 10.4 18.2 0.00 0.00 0.00 30 998.7
20240303124537 36 240 9.6 14.8 0.00 0.00 0.00 29 997.8
20240303123046 36 241 4.3 9.6 0.00 0.00 0.00 32 997.9
20240303121533 36 275 0.0 2.6 0.00 0.00 0.00 34 997.1
20240303120030 36 337 0.9 9.6 0.00 0.00 0.00 33 996.3
20240303114529 37 292 5.2 15.6 0.00 0.00 0.00 30 996.8
20240303113026 38 310 0.9 7.8 0.00 0.00 0.00 33 997.1
20240303111523 38 321 5.2 12.2 0.00 0.00 0.00 32 996.2
20240303110021 38 281 4.3 11.3 0.00 0.00 0.00 38 995.1
20240303104523 39 42 0.0 7.0 0.00 0.00 0.00 38 994.5
20240303103016 39 277 0.9 5.2 0.00 0.00 0.00 40 994.3
20240303101514 39 26 2.6 5.2 0.00 0.00 0.00 50 993.7
20240303100012 38 296 0.0 3.5 0.00 0.00 0.00 57 994.1
20240303094508 38 267 4.3 8.7 0.00 0.00 0.00 58 993.6
20240303093007 37 289 3.5 9.6 0.00 0.00 0.00 65 992.8
20240303091511 37 227 11.3 21.7 0.00 0.00 0.00 74 993.4
20240303090001 37 271 9.6 20.9 0.00 0.00 0.00 76 992.7
20240303084559 38 250 10.4 22.6 0.00 0.00 0.00 72 991.9
20240303083054 45 279 9.6 31.3 0.00 0.00 0.00 52 991.6
20240303081552 48 232 2.6 6.1 0.00 0.00 0.00 46 990.0
20240303080109 48 211 2.6 9.6 0.00 0.00 0.00 44 989.4
20240303074547 49 232 7.8 17.4 0.00 0.00 0.00 43 989.9
20240303073041 50 229 11.3 20.0 0.00 0.00 0.00 40 990.5
20240303071547 50 251 7.0 16.5 0.00 0.00 0.00 38 990.8
20240303070041 50 246 12.2 19.1 0.00 0.00 0.00 40 990.8
20240303064539 49 291 7.0 13.0 0.00 0.00 0.00 45 990.9
20240303063037 49 265 6.1 13.0 0.00 0.00 0.00 44 990.4
20240303061533 50 196 10.4 16.5 0.00 0.00 0.00 41 990.6
20240303060039 50 223 7.8 19.1 0.00 0.00 0.00 40 990.7
20240303054529 50 266 3.5 13.9 0.00 0.00 0.00 39 991.2
20240303053027 51 249 5.2 12.2 0.00 0.00 0.00 38 991.1
20240303051526 52 271 5.2 13.9 0.00 0.00 0.00 34 991.3
20240303050025 53 223 8.7 15.6 0.00 0.00 0.00 33 991.5
20240303044523 54 234 9.6 17.4 0.00 0.00 0.00 30 991.5
20240303043030 55 229 14.8 21.7 0.00 0.00 0.00 28 991.6
20240303041522 55 236 7.8 18.2 0.00 0.00 0.00 25 991.5
20240303040019 55 219 7.0 17.4 0.00 0.00 0.00 24 991.4
20240303034518 56 232 7.8 13.0 0.00 0.00 0.00 24 991.5
20240303033020 56 242 3.5 8.7 0.00 0.00 0.00 23 991.6
20240303031517 56 233 5.2 11.3 0.00 0.00 0.00 22 991.8
20240303030024 56 253 4.3 10.4 0.00 0.00 0.00 21 992.0